Weather History for Jefferson City, MO

Change the Weather History Date:

Tuesday, November 20, 2012

  Actual Average Record
Temperature  
Mean Temperature 50 °F -  
Max Temperature 63 °F 55 °F 78 °F (1933)
Min Temperature 37 °F 33 °F 11 °F (1937)
Degree Days  
Heating Degree Days 15    
Moisture  
Dew Point 39 °F    
Average Humidity 86    
Maximum Humidity 93    
Minimum Humidity 50    
Precipitation  
Precipitation 0.00 in - - ()
Sea Level Pressure  
Sea Level Pressure 30.14 in    
Wind  
Wind Speed 2 mph (NW)    
Max Wind Speed 12 mph    
Max Gust Speed -    
Visibility 4 miles    
Events Fog    
Averages and records for this station are not official NWS values.
T = Trace of Precipitation, MM = Missing Value Source: NWS Daily Summary

Daily Weather History Graph

Daily Weather History Graph

Search for Another Location

Airport:

Trip Planner

Search our weather history database for the weather conditions in past years. The results will help you decide how hot, cold, wet, or windy it might be!

Date:

Astronomy

Nov. 20, 2012 Rise Set
Actual Time 6:56 AM CST 4:51 PM CST
Civil Twilight 6:27 AM CST 5:20 PM CST
Nautical Twilight 5:55 AM CST 5:52 PM CST
Astronomical Twilight 5:23 AM CST 6:24 PM CST
Moon 12:33 PM CST (11/20) No Moon Set
Length of Visible Light 10h 52m
Length of Day
9h 55m
First Quarter, 51% of the Moon is Illuminated
Nov 20
First Quarter
Nov 28
Full
Dec 6
Last Quarter
Dec 13
New
Dec 19
First Quarter

Hourly Weather History & Observations

Time (CST) Temp. Windchill Dew Point Humidity Pressure Visibility Wind Dir Wind Speed Gust Speed Precip Events Conditions
12:53 AM 48.0 °F - 43.0 °F 83% 30.08 in 10.0 mi SE 4.6 mph - N/A   Clear
1:53 AM 45.0 °F - 42.1 °F 90% 30.08 in 9.0 mi Calm Calm - N/A   Clear
2:53 AM 46.0 °F 44.8 °F 42.1 °F 86% 30.08 in 9.0 mi East 3.5 mph - N/A   Clear
3:53 AM 44.1 °F - 41.0 °F 89% 30.06 in 7.0 mi Calm Calm - N/A   Clear
4:36 AM 39.2 °F - 37.4 °F 93% 30.10 in 2.0 mi Calm Calm - N/A   Partly Cloudy
4:46 AM 39.2 °F - 37.4 °F 93% 30.10 in 1.0 mi Calm Calm - N/A   Mist
4:53 AM 39.9 °F - 37.9 °F 93% 30.08 in 1.0 mi Calm Calm - N/A   Mist
4:56 AM 39.2 °F - 37.4 °F 93% 30.11 in 2.0 mi Calm Calm - N/A   Partly Cloudy
5:04 AM 39.2 °F - 37.4 °F 93% 30.11 in 3.0 mi Calm Calm - N/A   Partly Cloudy
5:53 AM 37.9 °F - 35.1 °F 89% 30.09 in 3.0 mi Calm Calm - N/A   Clear
6:16 AM 39.2 °F - 37.4 °F 93% 30.11 in 2.0 mi Calm Calm - N/A   Clear
6:25 AM 39.2 °F - 37.4 °F 93% 30.11 in 1.0 mi Calm Calm - N/A   Mist
6:37 AM 39.2 °F - 37.4 °F 93% 30.12 in 2.0 mi Calm Calm - N/A   Clear
6:48 AM 39.2 °F 37.0 °F 37.4 °F 93% 30.12 in 4.0 mi NNW 3.5 mph - N/A   Clear
6:53 AM 39.9 °F 37.8 °F 37.9 °F 93% 30.11 in 4.0 mi NNW 3.5 mph - N/A   Clear
7:10 AM 39.2 °F 37.0 °F 37.4 °F 93% 30.13 in 1.8 mi WNW 3.5 mph - N/A   Clear
7:21 AM 37.4 °F 34.9 °F 35.6 °F 93% 30.14 in 3.0 mi West 3.5 mph - N/A   Clear
7:25 AM 37.4 °F - 35.6 °F 93% 30.14 in 2.5 mi Calm Calm - N/A   Partly Cloudy
7:28 AM 37.4 °F - 35.6 °F 93% 30.14 in 1.0 mi Calm Calm - N/A   Mist
7:37 AM 39.2 °F - 37.4 °F 93% 30.14 in 2.0 mi Calm Calm - N/A   Scattered Clouds
7:53 AM 37.9 °F 35.5 °F 36.0 °F 93% 30.12 in 3.0 mi NW 3.5 mph - N/A   Partly Cloudy
8:00 AM 39.2 °F - 37.4 °F 93% 30.15 in 2.5 mi Calm Calm - N/A   Partly Cloudy
8:03 AM 39.2 °F 37.0 °F 37.4 °F 93% 30.15 in 1.0 mi NW 3.5 mph - N/A   Mist
8:05 AM 39.2 °F - 37.4 °F 93% 30.15 in 0.5 mi Calm Calm - N/A Fog Fog
8:14 AM 39.2 °F 37.0 °F 37.4 °F 93% 30.15 in 0.2 mi NNW 3.5 mph - N/A Fog Fog
8:40 AM 44.6 °F 43.1 °F 42.8 °F 93% 30.15 in 1.0 mi WNW 3.5 mph - N/A   Mist
8:45 AM 44.6 °F 41.4 °F 42.8 °F 93% 30.15 in 2.5 mi WNW 5.8 mph - N/A   Scattered Clouds
8:53 AM 45.0 °F 43.5 °F 43.0 °F 93% 30.13 in 3.0 mi WNW 3.5 mph - N/A   Partly Cloudy
9:53 AM 51.1 °F - 42.1 °F 71% 30.13 in 8.0 mi NW 9.2 mph - N/A   Clear
10:53 AM 55.0 °F - 42.1 °F 62% 30.12 in 9.0 mi WNW 8.1 mph - N/A   Clear
11:53 AM 57.9 °F - 42.1 °F 56% 30.11 in 10.0 mi WNW 9.2 mph - N/A   Clear
1:53 PM 63.0 °F - 44.1 °F 50% 30.09 in 10.0 mi WNW 11.5 mph - N/A   Clear
2:53 PM 63.0 °F - 44.1 °F 50% 30.09 in 10.0 mi NW 9.2 mph - N/A   Clear
3:53 PM 62.1 °F - 45.0 °F 53% 30.12 in 10.0 mi WNW 5.8 mph - N/A   Clear
4:53 PM 60.1 °F - 44.1 °F 55% 30.13 in 10.0 mi NW 3.5 mph - N/A   Clear
5:53 PM 55.9 °F - 44.1 °F 64% 30.14 in 10.0 mi Calm Calm - N/A   Clear
6:53 PM 50.0 °F - 43.0 °F 77% 30.16 in 10.0 mi Calm Calm - N/A   Clear
7:53 PM 46.9 °F - 42.1 °F 83% 30.18 in 8.0 mi Calm Calm - N/A   Clear
8:53 PM 43.0 °F 41.3 °F 39.0 °F 86% 30.18 in 7.0 mi WNW 3.5 mph - N/A   Clear
9:53 PM 42.1 °F 40.2 °F 39.0 °F 89% 30.19 in 5.0 mi WNW 3.5 mph - N/A   Clear
10:53 PM 41.0 °F - 37.9 °F 89% 30.21 in 3.0 mi Calm Calm - N/A   Clear
11:10 PM 39.2 °F - 37.4 °F 93% 30.23 in 2.0 mi Calm Calm - N/A   Clear
11:30 PM 39.2 °F - 37.4 °F 93% 30.23 in 3.0 mi Calm Calm - N/A   Clear
11:42 PM 39.2 °F - 37.4 °F 93% 30.24 in 2.0 mi Calm Calm - N/A   Clear
11:51 PM 37.4 °F - 35.6 °F 93% 30.23 in 1.2 mi Calm Calm - N/A   Partly Cloudy
11:53 PM 37.0 °F - 35.1 °F 93% 30.21 in 1.2 mi Calm Calm - N/A   Partly Cloudy
11:59 PM 37.4 °F - 35.6 °F 93% 30.23 in 0.8 mi Calm Calm - N/A   Mist